Mount Holly, NJ

10:41 PM EST on November 20, 2017 (GMT -0500)
South Jersey Regional

Weather History for KVAY - December, 2012

Change the Weather History Date:

Tuesday, December 25, 2012

  Actual Average (KPNE) Record (KPNE)
Temperature  
Mean Temperature 37 °F -  
Max Temperature 41 °F 39 °F 69 °F (2015)
Min Temperature 33 °F 25 °F 14 °F (2000)
Degree Days  
Heating Degree Days 28    
Moisture  
Dew Point 32 °F    
Average Humidity 84    
Maximum Humidity 100    
Minimum Humidity 65    
Precipitation  
Precipitation 0.00 in - - ()
Sea Level Pressure  
Sea Level Pressure 30.07 in    
Wind  
Wind Speed 5 mph (NW)    
Max Wind Speed 12 mph    
Max Gust Speed 18 mph    
Visibility 7 miles    
Events      
Averages and records for this station are not official NWS values.
T = Trace of Precipitation, MM = Missing Value Source: NWS Daily Summary

Daily Weather History Graph

Daily Weather History Graph

Search for Another Location

Airport or City:

Trip Planner

Search our weather history database for the weather conditions in past years. The results will help you decide how hot, cold, wet, or windy it might be!

Date:

Astronomy

Dec. 25, 2012 Rise Set
Actual Time 7:19 AM EST 4:40 PM EST
Civil Twilight 6:48 AM EST 5:10 PM EST
Nautical Twilight 6:14 AM EST 5:44 PM EST
Astronomical Twilight 5:41 AM EST 6:17 PM EST
Moon 2:46 PM EST (12/25) 4:49 AM EST (12/25)
Length of Visible Light 10h 21m
Length of Day
9h 20m
Waxing Gibbous, 93% of the Moon is Illuminated
Dec 25
Waxing Gibbous
Dec 28
Full
Jan 4
Last Quarter
Jan 11
New
Jan 18
First Quarter

Hourly Weather History & Observations

Time (EST) Temp. Windchill Dew Point Humidity Pressure Visibility Wind Dir Wind Speed Gust Speed Precip Events Conditions
12:18 AM 33.8 °F 27.7 °F 33.8 °F 100% 29.90 in 2.0 mi NNE 6.9 mph - N/A   Overcast
12:54 AM 35.1 °F 32.2 °F 34.0 °F 96% 29.90 in 2.0 mi North 3.5 mph - N/A   Overcast
1:06 AM 35.6 °F - 33.8 °F 93% 29.89 in 1.8 mi Calm Calm - N/A   Overcast
1:14 AM 35.6 °F - 33.8 °F 93% 29.89 in 2.0 mi Calm Calm - N/A   Overcast
1:54 AM 35.1 °F - 35.1 °F 100% 29.91 in 2.0 mi Calm Calm - N/A   Overcast
2:54 AM 36.0 °F - 35.1 °F 97% 29.92 in 2.0 mi Calm Calm - N/A   Overcast
3:54 AM 36.0 °F - 35.1 °F 97% 29.93 in 2.0 mi Calm Calm - N/A   Overcast
4:54 AM 36.0 °F 33.3 °F 35.1 °F 97% 29.94 in 2.5 mi NW 3.5 mph - N/A   Overcast
5:09 AM 35.6 °F 32.8 °F 35.6 °F 100% 29.95 in 3.0 mi NW 3.5 mph - N/A   Overcast
5:25 AM 35.6 °F - 35.6 °F 100% 29.96 in 4.0 mi Calm Calm - N/A   Overcast
5:54 AM 37.0 °F 33.3 °F 35.1 °F 93% 29.97 in 4.0 mi WNW 4.6 mph - N/A   Overcast
6:21 AM 35.6 °F 31.7 °F 35.6 °F 100% 29.99 in 4.0 mi WNW 4.6 mph - N/A   Overcast
6:43 AM 35.6 °F 30.7 °F 33.8 °F 93% 29.99 in 5.0 mi WNW 5.8 mph - N/A   Overcast
6:54 AM 36.0 °F 32.1 °F 34.0 °F 93% 30.00 in 7.0 mi Variable 4.6 mph - N/A   Overcast
7:54 AM 35.1 °F 30.1 °F 33.1 °F 92% 30.03 in 5.0 mi NW 5.8 mph - N/A   Mostly Cloudy
8:54 AM 36.0 °F 33.3 °F 33.1 °F 89% 30.06 in 8.0 mi WNW 3.5 mph - N/A   Mostly Cloudy
9:01 AM 35.6 °F 31.7 °F 33.8 °F 93% 30.06 in 8.0 mi WNW 4.6 mph - N/A   Scattered Clouds
9:16 AM 35.6 °F 30.7 °F 32.0 °F 87% 30.08 in 9.0 mi Variable 5.8 mph - N/A   Mostly Cloudy
9:25 AM 37.4 °F 32.1 °F 32.0 °F 81% 30.08 in 10.0 mi WNW 6.9 mph - N/A   Mostly Cloudy
9:33 AM 37.4 °F 33.8 °F 33.8 °F 87% 30.09 in 10.0 mi West 4.6 mph - N/A   Scattered Clouds
9:41 AM 37.4 °F 32.1 °F 33.8 °F 87% 30.09 in 10.0 mi NW 6.9 mph - N/A   Mostly Cloudy
9:54 AM 37.0 °F 32.4 °F 33.1 °F 86% 30.09 in 10.0 mi WNW 5.8 mph - N/A   Mostly Cloudy
10:13 AM 37.4 °F 32.8 °F 32.0 °F 81% 30.10 in 10.0 mi Variable 5.8 mph - N/A   Scattered Clouds
10:29 AM 39.2 °F 33.6 °F 33.8 °F 81% 30.11 in 10.0 mi WNW 8.1 mph - N/A   Mostly Cloudy
10:54 AM 39.9 °F 35.8 °F 33.1 °F 77% 30.11 in 10.0 mi WNW 5.8 mph 16.1 mph N/A   Mostly Cloudy
11:08 AM 39.2 °F 32.5 °F 33.8 °F 81% 30.10 in 10.0 mi NNW 10.4 mph - N/A   Scattered Clouds
11:54 AM 41.0 °F 35.2 °F 33.1 °F 73% 30.08 in 10.0 mi NW 9.2 mph - N/A   Mostly Cloudy
12:54 PM 39.9 °F 33.9 °F 32.0 °F 73% 30.11 in 10.0 mi NW 9.2 mph 17.3 mph N/A   Overcast
1:54 PM 39.9 °F 34.5 °F 30.9 °F 70% 30.11 in 10.0 mi NW 8.1 mph 18.4 mph N/A   Overcast
2:54 PM 39.9 °F 32.9 °F 30.9 °F 70% 30.11 in 10.0 mi NNW 11.5 mph 18.4 mph N/A   Overcast
3:54 PM 39.9 °F 34.5 °F 30.0 °F 68% 30.14 in 10.0 mi NNW 8.1 mph - N/A   Overcast
4:54 PM 39.0 °F 34.8 °F 28.9 °F 67% 30.15 in 10.0 mi NNW 5.8 mph - N/A   Overcast
5:54 PM 39.0 °F 32.3 °F 28.0 °F 65% 30.18 in 10.0 mi NNW 10.4 mph - N/A   Overcast
6:54 PM 37.9 °F 32.1 °F 28.0 °F 68% 30.21 in 10.0 mi NNW 8.1 mph - N/A   Overcast
7:54 PM 37.0 °F 30.4 °F 28.0 °F 70% 30.22 in 10.0 mi North 9.2 mph - N/A   Overcast
8:54 PM 36.0 °F 30.3 °F 27.0 °F 70% 30.24 in 10.0 mi North 6.9 mph - N/A   Overcast
9:54 PM 36.0 °F 30.3 °F 26.1 °F 67% 30.25 in 10.0 mi NNE 6.9 mph - N/A   Overcast
10:54 PM 35.1 °F 29.3 °F 25.0 °F 67% 30.26 in 10.0 mi North 6.9 mph - N/A   Overcast
11:52 PM 33.8 °F 30.8 °F 24.8 °F 70% 30.25 in 10.0 mi North 3.5 mph - N/A   Scattered Clouds
11:54 PM 33.1 °F 30.0 °F 25.0 °F 72% 30.25 in 10.0 mi North 3.5 mph - N/A   Partly Cloudy